Weather History for PATO - November, 2013

Change the Weather History Date:

Wednesday, November 27, 2013

  Actual Average Record
Temperature  
Mean Temperature 28 °F -  
Max Temperature 30 °F - - ()
Min Temperature 24 °F - - ()
Degree Days  
Heating Degree Days 37    
Moisture  
Dew Point 28 °F    
Average Humidity 96    
Maximum Humidity 100    
Minimum Humidity 71    
Precipitation  
Precipitation 0.20 in - - ()
Sea Level Pressure  
Sea Level Pressure 29.76 in    
Wind  
Wind Speed 5 mph (West)    
Max Wind Speed 17 mph    
Max Gust Speed 30 mph    
Visibility 4 miles    
Events Snow    
T = Trace of Precipitation, MM = Missing Value Source: NWS Daily Summary

Daily Weather History Graph

Daily Weather History Graph

Search for Another Location

Airport or City:

Trip Planner

Search our weather history database for the weather conditions in past years. The results will help you decide how hot, cold, wet, or windy it might be!

Date:

Astronomy

Nov. 27, 2013 Rise Set
Actual Time 9:29 AM AKST 3:56 PM AKST
Civil Twilight 8:34 AM AKST 4:51 PM AKST
Nautical Twilight 7:38 AM AKST 5:47 PM AKST
Astronomical Twilight 6:46 AM AKST 6:39 PM AKST
Moon 2:10 AM AKST (11/27) 2:02 PM AKST (11/27)
Length of Visible Light 8h 17m
Length of Day
6h 27m
Waning Crescent, 30% of the Moon is Illuminated
Nov 27
Waning Crescent
Dec 2
New
Dec 9
First Quarter
Dec 17
Full
Dec 25
Last Quarter

Hourly Weather History & Observations

Time (AKST) Temp. Windchill Dew Point Humidity Pressure Visibility Wind Dir Wind Speed Gust Speed Precip Events Conditions
12:26 AM 28.9 °F - 28.9 °F 100% 29.88 in 1.5 mi Calm Calm - 0.02 in Snow Light Snow
12:53 AM 28.9 °F - 28.9 °F 100% 29.88 in 1.2 mi Calm Calm - 0.04 in Snow Light Snow
1:53 AM 28.9 °F - 28.9 °F 100% 29.86 in 1.5 mi Calm Calm - 0.04 in Snow Light Snow
2:13 AM 28.9 °F 25.2 °F 28.9 °F 100% 29.86 in 2.0 mi West 3.5 mph - 0.00 in Snow Light Snow
2:20 AM 28.9 °F - 28.9 °F 100% 29.86 in 1.5 mi Calm Calm - 0.01 in Snow Light Snow
2:49 AM 28.4 °F - 28.4 °F 100% 29.86 in 1.5 mi Calm Calm - 0.02 in Snow Light Snow
2:53 AM 28.9 °F - 28.9 °F 100% 29.86 in 1.5 mi Calm Calm - 0.02 in Snow Light Snow
3:53 AM 28.9 °F 25.2 °F 28.9 °F 100% 29.86 in 1.5 mi WNW 3.5 mph - 0.02 in Snow Light Snow
4:10 AM 28.9 °F 25.2 °F 28.9 °F 100% 29.85 in 2.0 mi WNW 3.5 mph - 0.00 in Snow Light Snow
4:22 AM 28.9 °F 25.2 °F 28.9 °F 100% 29.85 in 3.0 mi WNW 3.5 mph - 0.00 in Snow Light Snow
4:30 AM 28.9 °F 25.2 °F 28.0 °F 96% 29.84 in 2.5 mi NW 3.5 mph - 0.00 in Snow Light Snow
4:43 AM 28.9 °F - 28.9 °F 100% 29.84 in 1.2 mi Calm Calm - 0.00 in Snow Light Snow
4:53 AM 28.9 °F 25.2 °F 28.9 °F 100% 29.85 in 1.0 mi WNW 3.5 mph - 0.01 in Snow Light Snow
5:41 AM 28.9 °F - 28.9 °F 100% 29.83 in 2.5 mi Calm Calm - 0.01 in Snow Light Snow
5:53 AM 28.9 °F - 28.0 °F 96% 29.83 in 2.5 mi Calm Calm - 0.01 in Snow Light Snow
6:11 AM 28.9 °F - 28.0 °F 96% 29.82 in 1.5 mi Calm Calm - 0.01 in Snow Light Snow
6:27 AM 28.9 °F 25.2 °F 28.0 °F 96% 29.82 in 2.0 mi West 3.5 mph - 0.01 in Snow Light Snow
6:43 AM 28.0 °F 22.8 °F 28.0 °F 100% 29.82 in 1.8 mi WNW 4.6 mph - 0.01 in Snow Light Snow
6:53 AM 28.0 °F 22.8 °F 28.0 °F 100% 29.82 in 1.8 mi WNW 4.6 mph - 0.02 in Snow Light Snow
7:53 AM 28.0 °F 24.2 °F 28.0 °F 100% 29.81 in 1.2 mi WNW 3.5 mph - 0.02 in Snow Light Snow
8:53 AM 28.0 °F 21.7 °F 28.0 °F 100% 29.81 in 1.5 mi West 5.8 mph - 0.01 in Snow Light Snow
9:31 AM 28.0 °F 21.7 °F 28.0 °F 100% 29.80 in 2.0 mi West 5.8 mph - 0.01 in Snow Light Snow
9:53 AM 28.0 °F 20.8 °F 28.0 °F 100% 29.80 in 2.5 mi West 6.9 mph - 0.01 in Snow Light Snow
10:06 AM 28.0 °F 21.7 °F 28.0 °F 100% 29.79 in 1.5 mi Variable 5.8 mph - 0.00 in Snow Light Snow
10:18 AM 28.0 °F 20.8 °F 28.0 °F 100% 29.79 in 1.0 mi WNW 6.9 mph - 0.00 in Snow Light Snow
10:26 AM 28.0 °F 21.7 °F 28.0 °F 100% 29.79 in 1.2 mi WNW 5.8 mph - 0.00 in Snow Light Snow
10:33 AM 28.0 °F 20.8 °F 28.0 °F 100% 29.79 in 1.0 mi WNW 6.9 mph - 0.00 in Snow Light Snow
10:53 AM 28.9 °F 23.9 °F 28.0 °F 96% 29.78 in 1.5 mi WNW 4.6 mph - 0.00 in Snow Light Snow
11:29 AM 28.9 °F 21.9 °F 28.0 °F 96% 29.77 in 1.2 mi WNW 6.9 mph - 0.00 in Snow Light Snow
11:50 AM 28.4 °F 21.2 °F 28.4 °F 100% 29.76 in 1.0 mi WNW 6.9 mph - 0.00 in Snow Light Snow
11:53 AM 28.9 °F 22.8 °F 28.9 °F 100% 29.76 in 1.0 mi Variable 5.8 mph - 0.00 in Snow Light Snow
12:09 PM 28.9 °F 21.9 °F 28.0 °F 96% 29.76 in 1.0 mi WNW 6.9 mph - 0.00 in Snow Light Snow
12:40 PM 28.9 °F 19.8 °F 28.0 °F 96% 29.75 in 3.0 mi West 10.4 mph 16.1 mph 0.00 in Snow Light Snow
12:53 PM 28.9 °F 18.6 °F 28.0 °F 96% 29.75 in 4.0 mi West 12.7 mph 19.6 mph 0.00 in Snow Light Snow
1:24 PM 28.9 °F 19.2 °F 28.0 °F 96% 29.73 in 6.0 mi West 11.5 mph 17.3 mph 0.00 in Snow Light Snow
1:36 PM 28.9 °F 18.6 °F 28.0 °F 96% 29.73 in 2.5 mi West 12.7 mph 19.6 mph 0.00 in Snow Light Snow
1:46 PM 28.9 °F 19.8 °F 28.0 °F 96% 29.73 in 4.0 mi West 10.4 mph 19.6 mph 0.00 in Snow Light Snow
1:53 PM 28.9 °F 18.6 °F 28.0 °F 96% 29.73 in 5.0 mi West 12.7 mph 20.7 mph 0.00 in Snow Light Snow
2:07 PM 30.0 °F 20.0 °F 28.0 °F 92% 29.72 in 3.0 mi West 12.7 mph 20.7 mph 0.00 in Snow Light Snow
2:53 PM 30.0 °F 19.5 °F 28.0 °F 92% 29.70 in 5.0 mi West 13.8 mph - 0.00 in   Overcast
3:10 PM 30.0 °F 19.1 °F 28.0 °F 92% 29.70 in 2.5 mi West 15.0 mph 23.0 mph 0.00 in Snow Light Snow
3:28 PM 30.0 °F 19.5 °F 28.0 °F 92% 29.69 in 3.0 mi West 13.8 mph 23.0 mph 0.00 in Snow Light Snow
3:42 PM 30.0 °F 20.0 °F 28.0 °F 92% 29.69 in 3.0 mi West 12.7 mph 21.9 mph 0.00 in Snow Light Snow
3:50 PM 30.2 °F 20.8 °F 28.4 °F 93% 29.68 in 2.0 mi West 11.5 mph 20.7 mph 0.00 in Snow Light Snow
3:53 PM 30.0 °F 20.5 °F 28.0 °F 92% 29.69 in 2.0 mi West 11.5 mph 19.6 mph 0.00 in Snow Light Snow
4:08 PM 30.0 °F 20.5 °F 28.0 °F 92% 29.67 in 4.0 mi West 11.5 mph 17.3 mph 0.00 in Snow Light Snow
4:53 PM 30.0 °F 19.5 °F 28.0 °F 92% 29.66 in 10.0 mi West 13.8 mph 21.9 mph 0.00 in   Overcast
5:46 PM 30.0 °F 19.5 °F 28.9 °F 96% 29.63 in 10.0 mi West 13.8 mph 21.9 mph 0.00 in   Overcast
5:53 PM 30.0 °F 18.3 °F 28.9 °F 96% 29.64 in 9.0 mi West 17.3 mph 29.9 mph 0.00 in   Overcast
6:39 PM 30.0 °F 20.0 °F 28.9 °F 96% 29.62 in 8.0 mi West 12.7 mph 27.6 mph 0.00 in Snow Light Snow
6:53 PM 30.0 °F 19.1 °F 28.9 °F 96% 29.62 in 10.0 mi WSW 15.0 mph 23.0 mph 0.00 in   Overcast
7:45 PM 30.0 °F 19.5 °F 28.0 °F 92% 29.61 in 10.0 mi West 13.8 mph - N/A   Overcast
7:53 PM 30.9 °F 21.7 °F 28.0 °F 89% 29.61 in 10.0 mi West 11.5 mph 18.4 mph N/A   Overcast
8:53 PM 28.0 °F 19.3 °F 24.1 °F 85% 29.60 in 10.0 mi West 9.2 mph - N/A   Scattered Clouds
9:53 PM 26.1 °F 18.4 °F 21.0 °F 81% 29.61 in 10.0 mi West 6.9 mph - N/A   Clear
10:53 PM 26.1 °F 16.8 °F 19.9 °F 78% 29.61 in 10.0 mi WNW 9.2 mph - N/A   Clear
11:53 PM 24.1 °F 16.0 °F 16.0 °F 71% 29.62 in 10.0 mi WNW 6.9 mph - N/A   Clear